Location: Des Moines
(41.6010°N, 93.6090°W)
Time: 03:44:02
(UTC-05:00)

X-37B - Visible Passes

Search period start: 01 October 2020 00:00
Search period end: 11 October 2020 00:00
Orbit: 386 x 387 km, 45.0° (Epoch: 18 September)

Date Brightness Start Highest point End Pass type
(mag) Time Alt. Az. Time Alt. Az. Time Alt. Az.
01 Oct 2.7 19:40:39 10° S 19:42:20 14° SE 19:43:20 12° ESE visible
01 Oct 3.7 21:15:23 10° WSW 21:15:38 12° WSW 21:15:38 12° WSW visible
02 Oct 1.0 20:17:00 10° SW 20:20:01 42° SSE 20:20:04 42° SSE visible
03 Oct 2.0 19:18:56 10° SSW 19:21:35 24° SSE 19:24:13 10° E visible
03 Oct 2.4 20:54:50 10° WSW 20:56:40 31° W 20:56:40 31° W visible
04 Oct 0.5 19:56:15 10° WSW 19:59:25 74° SSE 20:00:52 29° ENE visible
04 Oct 4.2 21:33:06 10° W 21:33:09 10° W 21:33:09 10° W visible
05 Oct 1.3 20:34:23 10° W 20:37:16 51° NNW 20:37:16 51° NNW visible
06 Oct 0.7 19:35:42 10° WSW 19:38:53 72° NNW 19:41:19 16° ENE visible
06 Oct 3.6 21:12:42 10° WNW 21:13:36 17° WNW 21:13:36 17° WNW visible
07 Oct 1.3 20:13:59 10° W 20:17:03 44° N 20:17:36 39° NNE visible
08 Oct 1.1 19:15:16 10° W 19:18:22 52° NNW 19:21:30 10° ENE visible
08 Oct 2.8 20:52:13 10° WNW 20:53:51 25° NW 20:53:51 25° NW visible
09 Oct 1.4 19:53:34 10° WNW 19:56:37 42° N 19:57:49 28° NE visible
10 Oct 1.7 20:31:42 10° WNW 20:34:04 42° NW 20:34:04 42° NW visible
